[[{"header":{"parameterUnit":"m.s-1","parameterCategory":1,"la1":30.2991,"la2":30.254,"lo1":-89.0895,"lo2":-89.0444,"dy":0.0017,"dx":0.0017,"nx":28,"ny":28,"refTime":"2025-04-13T03:00:00:Z","depth":0,"parameterNumber":2,"parameterNumberName":"U-component_of_WINDS"},"data":[0,0,0,0,0,0,0,0,0,0,0,0,0,0,0,0,0,0,0,0,0,0,0,0,0,0,0,0,0,0,0,0,0,0,0,0,0,0,0,0,0,0,0,0,0,0,0,0,0,0,0,0,0,0,0,0,0,0,2.3519,2.352,0,2.3594,2.3595,2.3596,2.3577,2.3575,2.3574,2.3573,2.3647,2.365,2.3654,0,0,0,0,0,0,0,0,0,0,0,0,0,2.3356,2.3359,2.3519,2.352,2.3521,2.3594,2.3595,2.3596,2.3577,2.3575,2.3574,2.3572,2.3646,2.365,2.3654,0,0,0,0,0,0,0,0,0,0,0,0,0,2.3428,2.336,2.3519,2.3521,2.3522,2.3594,2.3595,2.3596,2.3578,2.3575,2.3573,2.3571,2.3645,2.365,2.3655,2.3729,0,0,2.367,2.3672,0,0,0,0,0,0,0,0,2.3424,2.3434,2.352,2.3521,2.3522,2.3574,2.3565,2.3641,2.3578,2.3556,2.3573,2.357,2.3624,2.3631,2.365,2.3733,2.3736,2.367,2.3673,2.3675,2.3677,0,0,0,0,0,0,0,2.3419,2.3431,2.3549,2.3521,2.3522,2.3516,2.3524,2.3579,2.3602,2.3558,2.3557,2.3566,2.3625,2.3645,2.3651,2.3737,2.367,2.3675,2.3678,2.368,2.388,2.3882,0,0,0,0,0,0,2.3414,2.3427,2.3547,2.3551,2.3467,2.3521,2.353,2.3559,2.3601,2.3605,2.3568,2.3565,2.3637,2.3645,2.3654,2.374,2.3675,2.368,2.3683,2.3877,2.388,2.3883,0,0,0,0,0,0,2.341,2.3425,2.3544,2.3489,2.3503,2.3526,2.356,2.3562,2.3582,2.3608,2.3612,2.3585,2.3636,2.3647,2.371,2.3743,2.3682,2.3687,2.3875,2.3878,2.3881,2.3916,0,0,0,0,0,0,2.3406,2.3423,2.3453,2.349,2.3506,2.36,2.3562,2.3565,2.3591,2.3588,2.3625,2.3629,2.3635,2.3702,2.3715,2.3748,2.3691,2.3872,2.3876,2.388,2.3912,2.392,2.3927,0,0,0,0,0,2.34,2.3461,2.3455,2.347,2.3545,2.3602,2.3611,2.3617,2.3594,2.3623,2.3639,2.3628,2.3738,2.3709,2.3723,2.3758,2.387,2.3875,2.388,2.3908,2.3918,2.3927,0,0,0,0,0,0,2.3428,2.3466,2.346,2.3535,2.3565,2.3598,2.3635,2.3628,2.3666,2.3661,2.3666,2.3675,2.3738,2.3755,2.3722,2.383,2.38,2.3808,2.3817,2.3827,2.3834,2.3827,2.3695,0,0,0,0,0,2.3443,2.3487,2.3518,2.358,2.3596,2.3613,2.3638,2.364,2.3672,2.3684,2.3705,2.3735,2.3776,2.3803,2.3842,2.3915,2.392,2.3946,2.3953,2.396,2.3966,2.4001,2.4011,2.39,2.39,2.39,0,0,2.3474,2.35,2.3528,2.3587,2.361,2.3654,2.3624,2.3673,2.3704,2.3691,2.3751,2.3767,2.3801,2.3868,2.3898,2.3884,2.3998,2.3966,2.3971,2.3974,2.4007,2.4018,2.4027,2.3903,2.3903,2.3902,0,0,2.3553,2.3579,2.3631,2.3655,2.3692,2.3702,2.3715,2.3749,2.3759,2.3819,2.3809,2.3846,2.3917,2.394,2.3961,2.4045,2.4034,2.4058,2.4096,2.4131,2.4139,2.4147,2.4173,2.4182,2.4064,2.4064,2.4064,0,2.3587,2.3653,2.366,2.3708,2.3732,2.3722,2.3774,2.3797,2.3844,2.386,2.3843,2.3929,2.3952,2.4022,2.4042,2.4061,2.4072,2.4052,2.4138,2.4146,2.4153,2.4177,2.4187,2.4067,2.4066,2.4066,2.4066,0,2.369,2.3737,2.3775,2.3819,2.3848,2.3898,2.391,2.3938,2.3937,2.3948,2.4007,2.4034,2.4076,2.4093,2.4093,2.4162,2.4151,2.4137,2.4105,2.4166,2.4188,2.4198,2.407,2.4069,2.4068,2.4068,0,0,2.3789,2.3835,2.3848,2.3866,2.3904,2.3939,2.3987,2.4028,2.405,2.4083,2.412,2.418,2.4165,2.4189,2.4191,2.4222,2.428,2.4202,2.4203,2.4212,2.4353,2.4361,2.4372,2.4275,2.4277,2.4278,2.4348,0,2.3867,2.3952,2.3958,2.4034,2.4074,2.4064,2.4105,2.4131,2.4143,2.4177,2.419,2.423,2.421,2.4223,2.4253,2.4267,2.4308,2.4262,2.4307,2.4308,2.4296,2.4385,2.4395,2.446,2.4358,2.436,2.4361,0,2.3971,2.4004,2.4084,2.4112,2.4129,2.4166,2.4202,2.4236,2.4265,2.4271,2.4296,2.4293,2.4339,2.4309,2.437,2.4339,2.4358,2.4367,2.437,2.4371,2.4336,2.4386,2.4482,2.449,2.4376,2.4375,2.4373,0,2.4029,2.4095,2.415,2.4166,2.4202,2.4227,2.4243,2.4269,2.4293,2.4324,2.4338,2.4375,2.4394,2.4422,2.4428,2.4406,2.4488,2.4459,2.4492,2.4491,2.4508,2.4506,2.4604,2.4525,2.4525,2.4525,2.4525,0,2.4114,2.4162,2.4176,2.4209,2.4261,2.4267,2.4318,2.4332,2.4355,2.4389,2.4384,2.4416,2.4423,2.4456,2.4461,2.4509,2.4519,2.4523,2.4523,2.4522,2.4521,2.4532,2.4526,2.4528,2.4527,2.4527,2.4526,0,2.4187,2.4199,2.4257,2.4286,2.4294,2.433,2.4354,2.4384,2.4394,2.4437,2.4448,2.4463,2.4501,2.4511,2.4557,2.456,2.4615,2.4613,2.4605,2.4604,2.4635,2.463,2.4741,2.4754,2.467,2.4671,2.4671,0,2.4239,2.4276,2.4307,2.4329,2.4346,2.4383,2.4406,2.4412,2.4435,2.4469,2.4494,2.4532,2.4561,2.4622,2.4636,2.467,2.4667,2.4703,2.4672,2.4667,2.4662,2.4659,2.4661,2.4708,2.4709,2.471,2.471,0,2.4329,2.4332,2.4366,2.44,2.4427,2.4455,2.4482,2.45,2.4509,2.4536,2.4574,2.4597,2.4643,2.4678,2.4712,2.4726,2.4718,2.472,2.4729,2.4726,2.4719,2.4719,2.4618,2.4717,2.4716,2.4716,2.4716,2.4715,2.439,2.442,2.4446,2.4482,2.4503,2.4527,2.4556,2.4569,2.4601,2.4638,2.464,2.468,2.4704,2.4748,2.4765,2.4795,2.4784,2.4798,2.48,2.4803,2.4803,2.4716,2.4802,2.4802,2.4802,2.4801,2.4801,0,2.4476,2.4491,2.4525,2.4561,2.4589,2.458,2.4608,2.4631,2.4667,2.4691,2.472,2.4762,2.4796,2.4812,2.4845,2.4866,2.4863,2.4874,2.4871,2.4873,2.4814,2.4801,2.4876,2.4876,2.4875,2.4875,2.4875,2.4875,2.4524,2.4573,2.4578,2.4636,2.4651,2.4691,2.4707,2.4728,2.4746,2.4793,2.4821,2.4831,2.4851,2.4885,2.4914,2.4918,2.4929,2.4941,2.4943,2.4886,2.4878,2.4871,2.4859,2.4944,2.4944,2.4999,2.5,2.5]},{"header":{"parameterUnit":"m.s-1","parameterCategory":1,"la1":30.2991,"la2":30.254,"lo1":-89.0895,"lo2":-89.0444,"dy":0.0017,"dx":0.0017,"nx":28,"ny":28,"refTime":"2025-04-13T03:00:00:Z","depth":0,"parameterNumber":3,"parameterNumberName":"V-component_of_WINDS"},"data":[0,0,0,0,0,0,0,0,0,0,0,0,0,0,0,0,0,0,0,0,0,0,0,0,0,0,0,0,0,0,0,0,0,0,0,0,0,0,0,0,0,0,0,0,0,0,0,0,0,0,0,0,0,0,0,0,0,0,3.2765,3.2765,0,3.2797,3.2797,3.2798,3.274,3.2738,3.2736,3.2734,3.2766,3.2769,3.2772,0,0,0,0,0,0,0,0,0,0,0,0,0,3.265,3.2653,3.2765,3.2765,3.2766,3.2797,3.2797,3.2798,3.274,3.2737,3.2735,3.2733,3.2765,3.2769,3.2772,0,0,0,0,0,0,0,0,0,0,0,0,0,3.2693,3.2654,3.2765,3.274,3.2739,3.2797,3.2797,3.2798,3.274,3.2737,3.2734,3.2732,3.2764,3.2768,3.2772,3.2856,0,0,3.2785,3.2786,0,0,0,0,0,0,0,0,3.2691,3.2697,3.2744,3.2742,3.274,3.2761,3.2769,3.2817,3.2741,3.274,3.2734,3.273,3.2767,3.2771,3.2783,3.2857,3.2858,3.2785,3.2787,3.2789,3.279,0,0,0,0,0,0,0,3.2688,3.2696,3.2777,3.2744,3.2742,3.2727,3.273,3.2778,3.2769,3.274,3.2735,3.274,3.2765,3.2779,3.2783,3.2859,3.2785,3.2788,3.2791,3.2792,3.2999,3.3002,0,0,0,0,0,0,3.2688,3.2694,3.2776,3.2778,3.2708,3.2732,3.2735,3.2757,3.2769,3.2768,3.2743,3.2737,3.2774,3.2779,3.2784,3.288,3.2789,3.2793,3.2795,3.2996,3.3,3.3003,0,0,0,0,0,0,3.2686,3.2696,3.2775,3.2735,3.2744,3.2737,3.2763,3.276,3.2773,3.2771,3.2769,3.2758,3.2772,3.2779,3.2838,3.2881,3.2795,3.2798,3.2993,3.2998,3.3002,3.3074,0,0,0,0,0,0,3.2683,3.2696,3.2728,3.2736,3.2746,3.2829,3.2765,3.2762,3.2781,3.2774,3.2785,3.2784,3.277,3.2832,3.2842,3.2885,3.2801,3.2989,3.2995,3.3,3.3068,3.3081,3.3092,0,0,0,0,0,3.2679,3.2748,3.273,3.274,3.2787,3.2832,3.2837,3.282,3.2784,3.2816,3.2814,3.2784,3.2875,3.2838,3.2849,3.2894,3.2986,3.2993,3.3,3.3063,3.3078,3.3092,0,0,0,0,0,0,3.2746,3.2749,3.2729,3.2803,3.2817,3.2822,3.2861,3.2837,3.2862,3.2855,3.2832,3.2835,3.2898,3.2902,3.2861,3.2973,3.2924,3.2934,3.2968,3.2983,3.2995,3.2992,3.2805,0,0,0,0,0,3.2769,3.2806,3.2806,3.2871,3.2879,3.2869,3.2888,3.2873,3.2887,3.2893,3.2895,3.291,3.2941,3.2963,3.2992,3.3068,3.3069,3.3104,3.3116,3.3126,3.3134,3.3172,3.3187,3.3026,3.3026,3.3026,0,0,3.2818,3.2824,3.2849,3.2884,3.2894,3.2931,3.2875,3.2918,3.2945,3.29,3.2955,3.2957,3.2971,3.3039,3.3069,3.3044,3.3178,3.3135,3.3143,3.3145,3.3181,3.3196,3.321,3.3031,3.303,3.3029,0,0,3.2925,3.2934,3.2988,3.2998,3.3012,3.3005,3.3018,3.3025,3.3025,3.308,3.3046,3.3077,3.3133,3.3144,3.3157,3.3265,3.3237,3.3275,3.3337,3.3374,3.3387,3.3398,3.3435,3.3448,3.3283,3.3283,3.3283,0,3.2983,3.3039,3.3018,3.3062,3.3078,3.3038,3.3091,3.3102,3.3126,3.3137,3.3109,3.3176,3.3183,3.3251,3.3277,3.329,3.3302,3.3273,3.3387,3.3398,3.3408,3.3442,3.3456,3.3288,3.3287,3.3287,3.3286,0,3.3108,3.3147,3.3189,3.3211,3.3232,3.3281,3.3266,3.3289,3.3272,3.3267,3.3322,3.3329,3.3357,3.3372,3.3356,3.3437,3.3421,3.3391,3.3341,3.3428,3.346,3.3473,3.3294,3.3292,3.3291,3.329,0,0,3.326,3.3269,3.3284,3.3292,3.3305,3.3334,3.338,3.3407,3.3426,3.3443,3.348,3.3526,3.3497,3.3511,3.3496,3.3529,3.3612,3.3494,3.3494,3.3514,3.3699,3.3721,3.3737,3.3594,3.3596,3.3598,3.3697,0,3.3364,3.3443,3.3425,3.3502,3.3536,3.3497,3.3537,3.3548,3.3544,3.3571,3.3567,3.3599,3.356,3.3568,3.3599,3.3595,3.3648,3.3588,3.3626,3.3628,3.3622,3.3754,3.3778,3.3871,3.3709,3.3712,3.3713,0,3.3497,3.3518,3.3598,3.3602,3.3616,3.3652,3.3674,3.3701,3.3712,3.3706,3.3722,3.3699,3.3743,3.3693,3.3751,3.3711,3.3725,3.3725,3.3729,3.373,3.3675,3.3757,3.39,3.3913,3.3733,3.3731,3.373,0,3.3597,3.3645,3.3698,3.3707,3.3714,3.3739,3.3743,3.3751,3.3768,3.3787,3.3797,3.3822,3.3835,3.3853,3.3837,3.3803,3.3898,3.3847,3.3893,3.3894,3.3914,3.3913,3.406,3.3926,3.3926,3.3926,3.3925,0,3.3715,3.3765,3.3743,3.3776,3.383,3.3808,3.3862,3.3861,3.3868,3.3899,3.3868,3.3897,3.3875,3.3902,3.389,3.3939,3.3946,3.3942,3.3938,3.3944,3.3944,3.3952,3.3945,3.3929,3.3929,3.3928,3.3927,0,3.3835,3.3823,3.3878,3.3879,3.388,3.392,3.392,3.3949,3.3942,3.3982,3.399,3.3979,3.4009,3.3995,3.4028,3.4019,3.4082,3.407,3.4078,3.4074,3.412,3.4115,3.4276,3.4295,3.4151,3.4152,3.4154,0,3.3911,3.3948,3.3952,3.397,3.3976,3.4006,3.4022,3.4001,3.4019,3.4033,3.4061,3.4088,3.4109,3.4159,3.4154,3.4177,3.4165,3.4219,3.4168,3.4172,3.4163,3.4161,3.4163,3.4229,3.4231,3.4232,3.4234,0,3.4045,3.4036,3.4061,3.4083,3.4103,3.4119,3.4133,3.4149,3.4128,3.415,3.418,3.4196,3.4228,3.4255,3.4275,3.4278,3.4252,3.425,3.4261,3.4267,3.427,3.4267,3.4104,3.4246,3.4245,3.4244,3.4243,3.4243,3.4144,3.4174,3.4181,3.4209,3.4216,3.4229,3.4256,3.4252,3.4276,3.43,3.4286,3.4321,3.4328,3.4353,3.4359,3.4386,3.4364,3.4381,3.4385,3.4389,3.4395,3.4266,3.4389,3.4389,3.4389,3.4388,3.4388,0,3.4275,3.4277,3.4303,3.4322,3.4343,3.4316,3.4329,3.4348,3.4379,3.4388,3.4409,3.4442,3.4468,3.4464,3.4486,3.4508,3.4496,3.4515,3.4512,3.4513,3.4414,3.4401,3.4524,3.4523,3.4523,3.4523,3.4523,3.4523,3.4346,3.4395,3.4386,3.4438,3.4439,3.4472,3.4482,3.4493,3.45,3.4538,3.4559,3.4556,3.4559,3.4581,3.4603,3.4601,3.461,3.4633,3.4626,3.4534,3.452,3.4507,3.4495,3.4635,3.4635,3.4723,3.4723,3.4724]}]]